Tracking 20712 objects as of 29-May-2020
HD Live streaming from Space Station
objects crossing your sky now

NAVSTAR 78 (USA 293)

Track NAVSTAR 78 (USA 293) now!
NAVSTAR 78 (USA 293) is classified as:


NORAD ID: 44506
Int'l Code: 2019-056A
Perigee: 20,178.3 km
Apogee: 20,201.4 km
Inclination: 55.2 °
Period: 718.0 minutes
Semi major axis: 26560 km
RCS: Unknown
Launch date: August 22, 2019
Source: United States (US)
Launch site: AIR FORCE EASTERN TEST RANGE (AFETR)
aabbcc
Your satellite tracking list
Your tracking list is empty




NASA's NSSDC Master Catalog

Two Line Element Set (TLE):
1 44506U 19056A   20149.92964120 -.00000054  00000-0  00000+0 0  9998
2 44506  55.2214  59.0301 0004347 173.0705 177.8165  2.00557568  5737
Source of the keplerian elements: AFSPC